(26) Proserpina
ephemeris date magn radius delta ra dec elong phase
Today5 Sep 202612.72.421 AU2.869 AU14h14m-14°06'54.1°19.7°
Opposition19 Aug 202710.82.612 AU1.603 AU22h03m-17°57'174.2°2.2°
(26) Proserpina - 2026-09-05
astro.vanbuitenen.nl


 
-1 year
-1 month
-1 day
Now
+1 day
+1 month
+1 year

The interactive orbit chart above shows the body's path through the solar system and its position at the given date. Green and blue lines are shown perpendicular to the ecliptic plane: Green if the path is above the ecliptic plane, blue if it is below. (Left-click and drag to rotate the view; Right-click and drag to move the view; Use scroll wheel to zoom in our out.)

The orbital elements of Proserpina are:

            e (Eccentricity)                : 0.0887077
            a (Semimajor axis)              : 2.6550796
            i (Inclination)                 : 3.55454
            Ω (Longitude of ascending node) : 45.68415
            ω (Argument of perihelion)      : 196.12059
            M (Mean anomaly)                : 335.10351
            Epoch                           : 2026 Jun 09

            L (Longitude of perihelion)     : 61.77533
            B (Latitude of perihelion)      : -0.98637
            P (Orbital period in years)     : 4.33            
        

The light curve chart below shows the estimated development of the minor planet's magnitude.


The all-sky chart below shows the path of the minor planet over the same period as the light curve. The current position is marked yellow.





The following chart shows the path of the minor planet in the next few days. The field of view is optimized for (~10x50) binoculars and finderscopes.




Ephemerides:
Date       Time       RA (2000)    DEC (2000)    delta   radius  elong  phase   PA    magn
2026-09-05 00:00 UT   14 14 55.7   -14 06 18     2.869    2.421   54.1   19.7   110   12.7 
2026-09-05 19:08 UT   14 16 13.1   -14 13 28     2.877    2.420   53.7   19.6   110   12.7 
2026-09-06 00:00 UT   14 16 32.8   -14 15 18     2.879    2.420   53.6   19.6   110   12.7 
2026-09-07 00:00 UT   14 18 10.4   -14 24 17     2.888    2.420   53.0   19.4   110   12.7 
2026-09-08 00:00 UT   14 19 48.6   -14 33 16     2.898    2.420   52.5   19.3   109   12.7 
2026-09-09 00:00 UT   14 21 27.2   -14 42 13     2.907    2.420   51.9   19.1   109   12.7 
2026-09-10 00:00 UT   14 23 06.2   -14 51 10     2.917    2.420   51.4   19.0   109   12.7 
2026-09-11 00:00 UT   14 24 45.8   -15 00 05     2.926    2.420   50.9   18.8   109   12.7 
2026-09-12 00:00 UT   14 26 25.8   -15 08 59     2.935    2.420   50.3   18.7   109   12.7 
2026-09-13 00:00 UT   14 28 06.3   -15 17 52     2.945    2.420   49.8   18.5   109   12.7 
2026-09-14 00:00 UT   14 29 47.3   -15 26 44     2.954    2.420   49.2   18.4   109   12.7 
2026-09-15 00:00 UT   14 31 28.7   -15 35 34     2.963    2.420   48.7   18.2   109   12.7 
2026-09-16 00:00 UT   14 33 10.6   -15 44 22     2.972    2.420   48.1   18.0   109   12.7 
2026-09-17 00:00 UT   14 34 53.0   -15 53 09     2.981    2.420   47.6   17.9   109   12.7 
2026-09-18 00:00 UT   14 36 35.8   -16 01 54     2.990    2.420   47.1   17.7   109   12.7 
2026-09-19 00:00 UT   14 38 19.0   -16 10 38     2.998    2.420   46.5   17.5   109   12.7 
2026-09-20 00:00 UT   14 40 02.7   -16 19 19     3.007    2.420   46.0   17.4   108   12.7 
2026-09-21 00:00 UT   14 41 46.8   -16 27 58     3.016    2.420   45.5   17.2   108   12.7 
2026-09-22 00:00 UT   14 43 31.3   -16 36 36     3.024    2.420   44.9   17.0   108   12.7 
2026-09-23 00:00 UT   14 45 16.3   -16 45 11     3.033    2.420   44.4   16.9   108   12.7 
2026-09-24 00:00 UT   14 47 01.7   -16 53 44     3.041    2.420   43.9   16.7   108   12.7 


    Terminology:
            
    delta:  distance between minor planet and earth in AU
    radius: distance between minor planet and sun in AU
    magn:   magnitude (brightness) estimate    
    ra:     right ascension in hours (24h = 360deg)
    dec:    declination in degrees
    elong:  elongation in degrees (angle sun-earth-minor planet)    
    phase:  phase angle in degrees (angle sun-minor planet-earth)        
    AU:     Astronomical Unit (mean distance between earth and sun: 149597870.7 km
    

Orbital elements provided by the MPC (Minor Planet Center).
Calculations by a modified version of AAPlus, a C# implementation of the AA+ project by PJ Naughter from the algorithms presented in the book "Astronomical Algorithms" by Jean Meeus.
NGC2000 dso catalog and star labels from VizieR as provided by the Strasbourg astronomical Data Center.
Tycho2 catalog from the ESO archive.